Time,TemperatureF,DewpointF,PressureIn,WindDirection,WindDirectionDegrees,WindSpeedMPH,WindSpeedGustMPH,Humidity,HourlyPrecipIn,Conditions,Clouds,dailyrainin,SoftwareType,DateUTC
2013-02-11 07:10:00,14.2,10.0,30.14,South,180,0.0,0.0,83,0.00,,---,0.00,VWS V14.01,2013-02-11 14:10:00,
2013-02-11 07:25:00,14.2,10.0,30.14,South,180,0.0,0.0,83,0.00,,---,0.00,VWS V14.01,2013-02-11 14:25:00,
2013-02-11 07:26:00,14.2,10.0,30.14,South,187,0.0,0.0,83,0.00,,---,0.00,VWS V14.01,2013-02-11 14:26:00,
2013-02-11 07:31:00,14.2,10.0,30.14,South,187,0.0,2.0,83,0.00,,---,0.00,VWS V14.01,2013-02-11 14:31:00,
2013-02-11 07:36:00,14.3,10.1,30.14,South,187,0.0,1.0,83,0.00,,---,0.00,VWS V14.01,2013-02-11 14:36:00,
2013-02-11 07:41:00,14.3,10.1,30.15,South,187,0.0,0.0,83,0.00,,---,0.00,VWS V14.01,2013-02-11 14:41:00,
2013-02-11 07:46:00,14.3,10.1,30.14,South,187,0.0,1.0,83,0.00,,---,0.00,VWS V14.01,2013-02-11 14:46:00,
2013-02-11 07:51:00,14.4,10.2,30.15,South,187,0.0,1.0,83,0.00,,---,0.00,VWS V14.01,2013-02-11 14:51:00,
2013-02-11 07:56:00,14.5,10.3,30.15,South,187,0.0,0.0,83,0.00,,---,0.00,VWS V14.01,2013-02-11 14:56:00,
2013-02-11 08:01:00,14.7,10.5,30.15,South,187,0.0,0.0,83,0.00,,---,0.00,VWS V14.01,2013-02-11 15:01:00,
2013-02-11 08:06:00,14.9,10.7,30.15,South,187,0.0,1.0,83,0.00,,---,0.00,VWS V14.01,2013-02-11 15:06:00,
2013-02-11 08:11:00,15.0,10.8,30.17,South,187,0.0,0.0,83,0.00,,---,0.00,VWS V14.01,2013-02-11 15:11:00,
2013-02-11 08:16:00,15.1,10.9,30.17,South,187,0.0,1.0,83,0.00,,---,0.00,VWS V14.01,2013-02-11 15:16:00,
2013-02-11 08:21:00,15.3,11.1,30.17,South,187,0.0,0.0,83,0.00,,---,0.00,VWS V14.01,2013-02-11 15:21:00,
2013-02-11 08:26:00,15.5,11.3,30.15,South,187,1.0,1.0,83,0.00,,---,0.00,VWS V14.01,2013-02-11 15:26:00,
2013-02-11 08:31:00,15.6,11.4,30.15,South,187,0.0,2.0,83,0.00,,---,0.00,VWS V14.01,2013-02-11 15:31:00,
2013-02-11 08:36:00,15.7,11.5,30.15,South,187,0.0,0.0,83,0.00,,---,0.00,VWS V14.01,2013-02-11 15:36:00,
2013-02-11 08:41:00,15.9,11.4,30.15,South,187,0.0,0.0,82,0.00,,---,0.00,VWS V14.01,2013-02-11 15:41:00,
2013-02-11 08:46:00,15.8,11.3,30.15,South,187,0.0,0.0,82,0.00,,---,0.00,VWS V14.01,2013-02-11 15:46:00,
2013-02-11 08:51:00,15.5,11.0,30.15,South,188,1.0,1.0,82,0.00,,---,0.00,VWS V14.01,2013-02-11 15:51:00,
2013-02-11 08:56:00,15.5,11.0,30.15,South,187,0.0,0.0,82,0.00,,---,0.00,VWS V14.01,2013-02-11 15:56:00,
2013-02-11 09:01:00,15.7,11.2,30.15,South,188,0.0,0.0,82,0.00,,---,0.00,VWS V14.01,2013-02-11 16:01:00,
2013-02-11 09:06:00,15.8,11.3,30.15,South,187,0.0,0.0,82,0.00,,---,0.00,VWS V14.01,2013-02-11 16:06:00,
2013-02-11 09:11:00,15.8,11.3,30.15,South,188,0.0,0.0,82,0.00,,---,0.00,VWS V14.01,2013-02-11 16:11:00,
2013-02-11 09:16:00,15.9,11.4,30.15,SSW,206,5.0,5.0,82,0.00,,---,0.00,VWS V14.01,2013-02-11 16:16:00,
2013-02-11 09:21:00,15.7,11.2,30.15,SSW,206,0.0,0.0,82,0.00,,---,0.00,VWS V14.01,2013-02-11 16:21:00,
2013-02-11 09:26:00,15.8,11.3,30.15,SSW,206,0.0,1.0,82,0.00,,---,0.00,VWS V14.01,2013-02-11 16:26:00,
2013-02-11 09:31:00,16.0,11.5,30.15,SSW,206,0.0,0.0,82,0.00,,---,0.00,VWS V14.01,2013-02-11 16:31:00,
2013-02-11 09:36:00,15.9,11.1,30.15,SSW,206,0.0,1.0,81,0.00,,---,0.00,VWS V14.01,2013-02-11 16:36:00,
2013-02-11 09:41:00,15.2,10.4,30.17,SW,215,4.0,4.0,81,0.00,,---,0.00,VWS V14.01,2013-02-11 16:41:00,
2013-02-11 09:46:00,15.3,10.8,30.17,SW,216,0.0,1.0,82,0.00,,---,0.00,VWS V14.01,2013-02-11 16:46:00,
2013-02-11 09:51:00,15.6,11.1,30.15,SW,216,0.0,0.0,82,0.00,,---,0.00,VWS V14.01,2013-02-11 16:51:00,
2013-02-11 09:56:00,16.0,11.5,30.15,SW,216,0.0,0.0,82,0.00,,---,0.00,VWS V14.01,2013-02-11 16:56:00,
2013-02-11 10:01:00,16.3,11.8,30.15,SW,216,0.0,4.0,82,0.00,,---,0.00,VWS V14.01,2013-02-11 17:01:00,
2013-02-11 10:06:00,16.6,12.1,30.15,SW,216,0.0,1.0,82,0.00,,---,0.00,VWS V14.01,2013-02-11 17:06:00,
2013-02-11 10:11:00,16.6,11.8,30.15,SW,216,0.0,0.0,81,0.00,,---,0.00,VWS V14.01,2013-02-11 17:11:00,
2013-02-11 10:16:00,16.9,12.1,30.15,SW,215,0.0,0.0,81,0.00,,---,0.00,VWS V14.01,2013-02-11 17:16:00,
2013-02-11 10:21:00,17.0,12.2,30.15,SW,215,0.0,0.0,81,0.00,,---,0.00,VWS V14.01,2013-02-11 17:21:00,
2013-02-11 10:26:00,17.4,12.6,30.15,SW,216,0.0,0.0,81,0.00,,---,0.00,VWS V14.01,2013-02-11 17:26:00,
2013-02-11 10:31:00,17.5,12.7,30.13,SW,216,0.0,1.0,81,0.00,,---,0.00,VWS V14.01,2013-02-11 17:31:00,
2013-02-11 10:36:00,17.5,12.4,30.13,SW,216,0.0,0.0,80,0.00,,---,0.00,VWS V14.01,2013-02-11 17:36:00,
2013-02-11 10:41:00,17.8,12.7,30.13,SW,216,0.0,0.0,80,0.00,,---,0.00,VWS V14.01,2013-02-11 17:41:00,
2013-02-11 10:46:00,17.3,11.9,30.15,SW,215,1.0,4.0,79,0.00,,---,0.00,VWS V14.01,2013-02-11 17:46:00,
2013-02-11 10:51:00,17.4,12.3,30.14,SW,216,0.0,0.0,80,0.00,,---,0.00,VWS V14.01,2013-02-11 17:51:00,
2013-02-11 10:56:00,17.6,12.2,30.12,SW,216,4.0,4.0,79,0.00,,---,0.00,VWS V14.01,2013-02-11 17:56:00,
2013-02-11 11:02:00,17.5,12.4,30.13,SW,215,0.0,0.0,80,0.00,,---,0.00,VWS V14.01,2013-02-11 18:02:00,
2013-02-11 11:07:00,17.8,12.4,30.13,SW,216,0.0,0.0,79,0.00,,---,0.00,VWS V14.01,2013-02-11 18:07:00,
2013-02-11 11:12:00,17.8,12.1,30.16,SW,217,3.0,4.0,78,0.00,,---,0.00,VWS V14.01,2013-02-11 18:12:00,
2013-02-11 11:17:00,17.0,11.6,30.16,SW,217,0.0,1.0,79,0.00,,---,0.00,VWS V14.01,2013-02-11 18:17:00,
2013-02-11 11:22:00,17.2,11.8,30.16,SW,217,0.0,2.0,79,0.00,,---,0.00,VWS V14.01,2013-02-11 18:22:00,
2013-02-11 11:27:00,16.9,11.5,30.15,SW,217,4.0,4.0,79,0.00,,---,0.00,VWS V14.01,2013-02-11 18:27:00,
2013-02-11 11:32:00,16.8,11.4,30.15,SW,217,1.0,3.0,79,0.00,,---,0.00,VWS V14.01,2013-02-11 18:32:00,
2013-02-11 11:37:00,16.5,11.1,30.15,SW,220,4.0,4.0,79,0.00,,---,0.00,VWS V14.01,2013-02-11 18:37:00,
2013-02-11 11:42:00,16.3,10.9,30.17,SW,231,6.0,6.0,79,0.00,,---,0.00,VWS V14.01,2013-02-11 18:42:00,
2013-02-11 11:47:00,16.1,10.8,30.16,SW,236,4.0,5.0,79,0.00,,---,0.00,VWS V14.01,2013-02-11 18:47:00,
2013-02-11 11:52:00,16.2,11.1,30.16,SW,236,0.0,2.0,80,0.00,,---,0.00,VWS V14.01,2013-02-11 18:52:00,
2013-02-11 11:57:00,16.0,10.6,30.16,SW,236,0.0,4.0,79,0.00,,---,0.00,VWS V14.01,2013-02-11 18:57:00,
2013-02-11 12:02:00,16.0,10.6,30.16,WSW,237,4.0,6.0,79,0.00,,---,0.00,VWS V14.01,2013-02-11 19:02:00,
2013-02-11 12:07:00,15.9,10.6,30.15,WSW,238,1.0,2.0,79,0.00,,---,0.00,VWS V14.01,2013-02-11 19:07:00,
2013-02-11 12:12:00,16.1,10.8,30.15,WSW,238,0.0,5.0,79,0.00,,---,0.00,VWS V14.01,2013-02-11 19:12:00,
2013-02-11 12:17:00,16.0,10.6,30.15,WSW,238,0.0,6.0,79,0.00,,---,0.00,VWS V14.01,2013-02-11 19:17:00,
2013-02-11 12:22:00,16.1,10.8,30.15,WSW,238,4.0,6.0,79,0.00,,---,0.00,VWS V14.01,2013-02-11 19:22:00,
2013-02-11 12:27:00,16.1,10.8,30.15,WSW,238,1.0,3.0,79,0.00,,---,0.00,VWS V14.01,2013-02-11 19:27:00,
2013-02-11 12:32:00,16.0,10.6,30.14,WSW,238,0.0,1.0,79,0.00,,---,0.00,VWS V14.01,2013-02-11 19:32:00,
2013-02-11 12:37:00,16.0,10.6,30.14,WSW,238,0.0,6.0,79,0.00,,---,0.00,VWS V14.01,2013-02-11 19:37:00,
2013-02-11 12:42:00,16.3,11.2,30.14,WSW,239,4.0,5.0,80,0.00,,---,0.00,VWS V14.01,2013-02-11 19:42:00,
2013-02-11 12:47:00,16.4,11.3,30.14,WSW,239,0.0,2.0,80,0.00,,---,0.00,VWS V14.01,2013-02-11 19:47:00,
2013-02-11 12:52:00,16.9,11.8,30.13,WSW,238,2.0,5.0,80,0.00,,---,0.00,VWS V14.01,2013-02-11 19:52:00,
2013-02-11 12:57:00,16.8,11.4,30.13,WSW,239,0.0,1.0,79,0.00,,---,0.00,VWS V14.01,2013-02-11 19:57:00,
2013-02-11 13:02:00,17.4,12.3,30.13,WSW,238,2.0,3.0,80,0.00,,---,0.00,VWS V14.01,2013-02-11 20:02:00,
2013-02-11 13:07:00,17.0,11.6,30.12,WSW,239,0.0,1.0,79,0.00,,---,0.00,VWS V14.01,2013-02-11 20:07:00,
2013-02-11 13:12:00,17.1,11.7,30.12,WSW,238,2.0,4.0,79,0.00,,---,0.00,VWS V14.01,2013-02-11 20:12:00,
2013-02-11 13:17:00,17.1,11.7,30.12,WSW,239,0.0,0.0,79,0.00,,---,0.00,VWS V14.01,2013-02-11 20:17:00,
2013-02-11 13:22:00,17.6,12.2,30.11,WSW,239,0.0,2.0,79,0.00,,---,0.00,VWS V14.01,2013-02-11 20:22:00,
2013-02-11 13:27:00,17.8,12.4,30.12,WSW,239,1.0,3.0,79,0.00,,---,0.00,VWS V14.01,2013-02-11 20:27:00,
2013-02-11 13:32:00,16.8,11.1,30.12,WSW,239,0.0,2.0,78,0.00,,---,0.00,VWS V14.01,2013-02-11 20:32:00,
2013-02-11 13:37:00,17.1,11.7,30.12,WSW,238,0.0,1.0,79,0.00,,---,0.00,VWS V14.01,2013-02-11 20:37:00,
2013-02-11 13:42:00,17.5,12.1,30.12,WSW,239,0.0,0.0,79,0.00,,---,0.00,VWS V14.01,2013-02-11 20:42:00,
2013-02-11 13:47:00,17.7,12.3,30.11,WSW,238,0.0,0.0,79,0.00,,---,0.00,VWS V14.01,2013-02-11 20:47:00,
2013-02-11 13:52:00,18.1,12.7,30.11,WSW,239,1.0,1.0,79,0.00,,---,0.00,VWS V14.01,2013-02-11 20:52:00,
2013-02-11 13:57:00,18.1,12.4,30.11,WSW,238,0.0,1.0,78,0.00,,---,0.00,VWS V14.01,2013-02-11 20:57:00,
2013-02-11 14:02:00,17.5,11.5,30.11,WSW,239,0.0,0.0,77,0.00,,---,0.00,VWS V14.01,2013-02-11 21:02:00,
2013-02-11 14:07:00,17.8,12.1,30.11,WSW,239,0.0,0.0,78,0.00,,---,0.00,VWS V14.01,2013-02-11 21:07:00,
2013-02-11 14:12:00,17.7,12.0,30.11,WSW,238,0.0,1.0,78,0.00,,---,0.00,VWS V14.01,2013-02-11 21:12:00,
2013-02-11 14:17:00,18.0,12.3,30.12,WSW,239,1.0,2.0,78,0.00,,---,0.00,VWS V14.01,2013-02-11 21:17:00,
2013-02-11 14:22:00,17.4,11.4,30.11,WSW,239,1.0,4.0,77,0.00,,---,0.00,VWS V14.01,2013-02-11 21:22:00,
2013-02-11 14:28:00,17.0,11.3,30.12,WSW,238,1.0,5.0,78,0.00,,---,0.00,VWS V14.01,2013-02-11 21:28:00,
2013-02-11 14:33:00,16.8,11.1,30.12,WSW,239,0.0,3.0,78,0.00,,---,0.00,VWS V14.01,2013-02-11 21:33:00,
2013-02-11 14:38:00,17.1,11.7,30.11,WSW,238,2.0,2.0,79,0.00,,---,0.00,VWS V14.01,2013-02-11 21:38:00,
2013-02-11 14:43:00,16.8,11.1,30.12,WSW,239,0.0,4.0,78,0.00,,---,0.00,VWS V14.01,2013-02-11 21:43:00,
2013-02-11 14:48:00,17.0,11.6,30.12,WSW,239,0.0,2.0,79,0.00,,---,0.00,VWS V14.01,2013-02-11 21:48:00,
2013-02-11 14:53:00,17.0,11.6,30.11,WSW,238,0.0,4.0,79,0.00,,---,0.00,VWS V14.01,2013-02-11 21:53:00,
2013-02-11 14:58:00,17.0,11.6,30.12,WSW,239,0.0,1.0,79,0.00,,---,0.00,VWS V14.01,2013-02-11 21:58:00,
2013-02-11 15:03:00,17.1,11.4,30.12,WSW,239,0.0,1.0,78,0.00,,---,0.00,VWS V14.01,2013-02-11 22:03:00,
2013-02-11 15:08:00,17.0,11.3,30.14,WSW,239,4.0,6.0,78,0.00,,---,0.00,VWS V14.01,2013-02-11 22:08:00,
2013-02-11 15:13:00,16.7,11.1,30.14,WSW,238,2.0,4.0,78,0.00,,---,0.00,VWS V14.01,2013-02-11 22:13:00,
2013-02-11 15:18:00,16.6,11.2,30.15,WSW,238,0.0,2.0,79,0.00,,---,0.00,VWS V14.01,2013-02-11 22:18:00,
2013-02-11 15:23:00,16.5,11.1,30.14,WSW,239,2.0,5.0,79,0.00,,---,0.00,VWS V14.01,2013-02-11 22:23:00,
2013-02-11 15:28:00,16.3,10.9,30.15,WSW,239,3.0,5.0,79,0.00,,---,0.00,VWS V14.01,2013-02-11 22:28:00,
2013-02-11 15:33:00,16.4,11.0,30.15,WSW,239,0.0,2.0,79,0.00,,---,0.00,VWS V14.01,2013-02-11 22:33:00,
2013-02-11 15:38:00,16.6,11.5,30.16,WSW,239,2.0,3.0,80,0.00,,---,0.00,VWS V14.01,2013-02-11 22:38:00,
2013-02-11 15:43:00,16.8,11.4,30.15,WSW,239,0.0,0.0,79,0.00,,---,0.00,VWS V14.01,2013-02-11 22:43:00,
2013-02-11 15:48:00,16.9,11.5,30.15,WSW,239,0.0,3.0,79,0.00,,---,0.00,VWS V14.01,2013-02-11 22:48:00,
2013-02-11 15:53:00,16.8,11.4,30.16,WSW,238,0.0,2.0,79,0.00,,---,0.00,VWS V14.01,2013-02-11 22:53:00,
2013-02-11 15:58:00,16.8,11.4,30.16,WSW,238,0.0,1.0,79,0.00,,---,0.00,VWS V14.01,2013-02-11 22:58:00,
2013-02-11 16:03:00,17.0,11.9,30.16,WSW,239,0.0,1.0,80,0.00,,---,0.00,VWS V14.01,2013-02-11 23:03:00,
2013-02-11 16:08:00,17.2,12.1,30.16,WSW,239,0.0,0.0,80,0.00,,---,0.00,VWS V14.01,2013-02-11 23:08:00,
2013-02-11 16:13:00,17.3,12.2,30.16,WSW,238,0.0,0.0,80,0.00,,---,0.00,VWS V14.01,2013-02-11 23:13:00,
2013-02-11 16:18:00,17.2,12.1,30.16,WSW,239,0.0,1.0,80,0.00,,---,0.00,VWS V14.01,2013-02-11 23:18:00,
2013-02-11 16:23:00,17.2,12.1,30.16,WSW,238,0.0,0.0,80,0.00,,---,0.00,VWS V14.01,2013-02-11 23:23:00,
2013-02-11 16:28:00,17.4,12.3,30.16,WSW,239,0.0,0.0,80,0.00,,---,0.00,VWS V14.01,2013-02-11 23:28:00,
2013-02-11 16:33:00,17.5,12.1,30.16,WSW,238,0.0,1.0,79,0.00,,---,0.00,VWS V14.01,2013-02-11 23:33:00,
2013-02-11 16:38:00,17.6,12.2,30.16,WSW,239,1.0,1.0,79,0.00,,---,0.00,VWS V14.01,2013-02-11 23:38:00,
2013-02-11 16:43:00,17.6,12.2,30.16,WSW,239,1.0,2.0,79,0.00,,---,0.00,VWS V14.01,2013-02-11 23:43:00,
2013-02-11 16:48:00,17.4,12.0,30.16,WSW,239,0.0,1.0,79,0.00,,---,0.00,VWS V14.01,2013-02-11 23:48:00,
2013-02-11 16:53:00,17.2,11.8,30.17,WSW,238,0.0,1.0,79,0.00,,---,0.00,VWS V14.01,2013-02-11 23:53:00,
2013-02-11 16:58:00,16.9,11.5,30.17,WSW,239,2.0,4.0,79,0.00,,---,0.00,VWS V14.01,2013-02-11 23:58:00,
2013-02-11 17:03:00,16.6,11.2,30.18,WSW,239,1.0,4.0,79,0.00,,---,0.00,VWS V14.01,2013-02-12 00:03:00,
2013-02-11 17:08:00,16.4,11.3,30.19,WSW,238,0.0,2.0,80,0.00,,---,0.00,VWS V14.01,2013-02-12 00:08:00,
2013-02-11 17:13:00,16.2,11.1,30.19,WSW,239,0.0,1.0,80,0.00,,---,0.00,VWS V14.01,2013-02-12 00:13:00,
2013-02-11 17:18:00,16.1,11.0,30.20,WSW,238,0.0,1.0,80,0.00,,---,0.00,VWS V14.01,2013-02-12 00:18:00,
2013-02-11 17:23:00,16.0,10.9,30.20,WSW,239,0.0,1.0,80,0.00,,---,0.00,VWS V14.01,2013-02-12 00:23:00,
2013-02-11 17:28:00,15.8,10.7,30.20,WSW,238,1.0,2.0,80,0.00,,---,0.00,VWS V14.01,2013-02-12 00:28:00,
2013-02-11 17:33:00,15.6,10.5,30.20,WSW,239,0.0,3.0,80,0.00,,---,0.00,VWS V14.01,2013-02-12 00:33:00,
2013-02-11 17:38:00,15.5,10.4,30.20,WSW,239,0.0,1.0,80,0.00,,---,0.00,VWS V14.01,2013-02-12 00:38:00,
2013-02-11 17:43:00,15.4,10.4,30.22,WSW,239,0.0,0.0,80,0.00,,---,0.00,VWS V14.01,2013-02-12 00:43:00,
2013-02-11 17:49:00,15.3,10.2,30.22,WSW,239,0.0,2.0,80,0.00,,---,0.00,VWS V14.01,2013-02-12 00:49:00,
2013-02-11 17:54:00,15.1,10.1,30.22,WSW,239,0.0,2.0,80,0.00,,---,0.00,VWS V14.01,2013-02-12 00:54:00,
2013-02-11 17:59:00,15.0,10.0,30.23,WSW,239,0.0,0.0,80,0.00,,---,0.00,VWS V14.01,2013-02-12 00:59:00,
2013-02-11 18:04:00,14.8,9.5,30.23,WSW,239,0.0,0.0,79,0.00,,---,0.00,VWS V14.01,2013-02-12 01:04:00,
2013-02-11 18:09:00,14.6,9.3,30.23,WSW,239,0.0,1.0,79,0.00,,---,0.00,VWS V14.01,2013-02-12 01:09:00,
2013-02-11 18:14:00,14.3,9.0,30.23,WSW,238,0.0,0.0,79,0.00,,---,0.00,VWS V14.01,2013-02-12 01:14:00,
2013-02-11 18:19:00,14.0,8.7,30.23,WSW,239,0.0,1.0,79,0.00,,---,0.00,VWS V14.01,2013-02-12 01:19:00,
2013-02-11 18:24:00,13.7,8.7,30.23,WSW,239,0.0,0.0,80,0.00,,---,0.00,VWS V14.01,2013-02-12 01:24:00,
2013-02-11 18:29:00,13.8,8.8,30.23,WSW,239,0.0,2.0,80,0.00,,---,0.00,VWS V14.01,2013-02-12 01:29:00,
2013-02-11 18:34:00,13.7,8.7,30.24,WSW,239,0.0,0.0,80,0.00,,---,0.00,VWS V14.01,2013-02-12 01:34:00,
2013-02-11 18:39:00,13.6,8.6,30.23,WSW,239,0.0,1.0,80,0.00,,---,0.00,VWS V14.01,2013-02-12 01:39:00,
2013-02-11 18:44:00,13.4,8.4,30.26,WSW,239,0.0,2.0,80,0.00,,---,0.00,VWS V14.01,2013-02-12 01:44:00,
2013-02-11 18:49:00,13.2,8.2,30.26,WSW,238,0.0,0.0,80,0.00,,---,0.00,VWS V14.01,2013-02-12 01:49:00,
2013-02-11 18:54:00,13.1,8.1,30.26,WSW,239,0.0,0.0,80,0.00,,---,0.00,VWS V14.01,2013-02-12 01:54:00,
2013-02-11 18:59:00,13.1,8.4,30.26,WSW,238,0.0,1.0,81,0.00,,---,0.00,VWS V14.01,2013-02-12 01:59:00,
2013-02-11 19:04:00,12.8,7.8,30.26,WSW,239,0.0,1.0,80,0.00,,---,0.00,VWS V14.01,2013-02-12 02:04:00,
2013-02-11 19:09:00,12.7,7.7,30.24,WSW,239,0.0,0.0,80,0.00,,---,0.00,VWS V14.01,2013-02-12 02:09:00,
2013-02-11 19:14:00,12.4,7.4,30.26,WSW,238,0.0,1.0,80,0.00,,---,0.00,VWS V14.01,2013-02-12 02:14:00,
2013-02-11 19:19:00,12.5,7.5,30.24,WSW,239,0.0,1.0,80,0.00,,---,0.00,VWS V14.01,2013-02-12 02:19:00,
2013-02-11 19:24:00,12.7,8.0,30.24,WSW,238,0.0,1.0,81,0.00,,---,0.00,VWS V14.01,2013-02-12 02:24:00,
2013-02-11 19:29:00,12.7,7.7,30.24,WSW,239,0.0,1.0,80,0.00,,---,0.00,VWS V14.01,2013-02-12 02:29:00,
2013-02-11 19:34:00,12.8,8.1,30.24,SW,227,1.0,3.0,81,0.00,,---,0.00,VWS V14.01,2013-02-12 02:34:00,
2013-02-11 19:39:00,13.0,8.3,30.24,SW,227,0.0,1.0,81,0.00,,---,0.00,VWS V14.01,2013-02-12 02:39:00,
2013-02-11 19:44:00,13.1,8.1,30.24,SW,226,0.0,2.0,80,0.00,,---,0.00,VWS V14.01,2013-02-12 02:44:00,
2013-02-11 19:49:00,13.2,8.2,30.25,SW,227,0.0,1.0,80,0.00,,---,0.00,VWS V14.01,2013-02-12 02:49:00,
2013-02-11 19:54:00,13.5,8.8,30.24,SW,224,0.0,4.0,81,0.00,,---,0.00,VWS V14.01,2013-02-12 02:54:00,
2013-02-11 19:59:00,13.8,8.8,30.25,SW,223,0.0,1.0,80,0.00,,---,0.00,VWS V14.01,2013-02-12 02:59:00,
2013-02-11 20:04:00,13.7,8.7,30.25,SW,224,4.0,4.0,80,0.00,,---,0.00,VWS V14.01,2013-02-12 03:04:00,
2013-02-11 20:09:00,13.7,8.7,30.23,SW,224,0.0,1.0,80,0.00,,---,0.00,VWS V14.01,2013-02-12 03:09:00,
2013-02-11 20:14:00,13.8,8.8,30.23,SW,224,0.0,1.0,80,0.00,,---,0.00,VWS V14.01,2013-02-12 03:14:00,
2013-02-11 20:19:00,14.1,9.1,30.23,SW,223,0.0,1.0,80,0.00,,---,0.00,VWS V14.01,2013-02-12 03:19:00,
2013-02-11 20:24:00,13.6,8.0,30.23,SW,224,0.0,6.0,78,0.00,,---,0.00,VWS V14.01,2013-02-12 03:24:00,
2013-02-11 20:29:00,12.8,7.2,30.25,SW,224,0.0,1.0,78,0.00,,---,0.00,VWS V14.01,2013-02-12 03:29:00,
2013-02-11 20:35:00,12.3,6.8,30.25,SW,224,0.0,1.0,78,0.00,,---,0.00,VWS V14.01,2013-02-12 03:35:00,
2013-02-11 20:40:00,11.8,6.3,30.25,SW,224,1.0,1.0,78,0.00,,---,0.00,VWS V14.01,2013-02-12 03:40:00,
2013-02-11 20:45:00,11.5,6.0,30.25,SW,224,0.0,0.0,78,0.00,,---,0.00,VWS V14.01,2013-02-12 03:45:00,
2013-02-11 20:50:00,11.4,5.9,30.27,SW,224,0.0,2.0,78,0.00,,---,0.00,VWS V14.01,2013-02-12 03:50:00,
2013-02-11 20:55:00,10.3,4.5,30.27,SW,223,2.0,7.0,77,0.00,,---,0.00,VWS V14.01,2013-02-12 03:55:00,
2013-02-11 21:00:00,9.0,3.3,30.27,SW,224,2.0,5.0,77,0.00,,---,0.00,VWS V14.01,2013-02-12 04:00:00,
2013-02-11 21:05:00,7.8,1.8,30.30,SW,224,3.0,5.0,76,0.00,,---,0.00,VWS V14.01,2013-02-12 04:05:00,
2013-02-11 21:10:00,6.8,1.1,30.30,SW,223,0.0,5.0,77,0.00,,---,0.00,VWS V14.01,2013-02-12 04:10:00,
2013-02-11 21:15:00,6.4,1.0,30.32,SW,224,1.0,1.0,78,0.00,,---,0.00,VWS V14.01,2013-02-12 04:15:00,
2013-02-11 21:20:00,6.1,1.0,30.32,SW,224,0.0,1.0,79,0.00,,---,0.00,VWS V14.01,2013-02-12 04:20:00,
2013-02-11 21:25:00,5.6,0.5,30.32,SW,224,0.0,0.0,79,0.00,,---,0.00,VWS V14.01,2013-02-12 04:25:00,
2013-02-11 21:30:00,5.4,0.6,30.32,SW,224,0.0,0.0,80,0.00,,---,0.00,VWS V14.01,2013-02-12 04:30:00,
2013-02-11 21:35:00,5.4,0.6,30.32,SW,224,0.0,2.0,80,0.00,,---,0.00,VWS V14.01,2013-02-12 04:35:00,
2013-02-11 21:40:00,5.3,0.5,30.32,SW,224,0.0,0.0,80,0.00,,---,0.00,VWS V14.01,2013-02-12 04:40:00,
2013-02-11 21:45:00,5.5,0.7,30.32,SW,224,0.0,1.0,80,0.00,,---,0.00,VWS V14.01,2013-02-12 04:45:00,
2013-02-11 21:50:00,5.6,1.0,30.32,SW,223,0.0,1.0,81,0.00,,---,0.00,VWS V14.01,2013-02-12 04:50:00,
2013-02-11 21:55:00,5.6,0.8,30.32,SW,223,0.0,0.0,80,0.00,,---,0.00,VWS V14.01,2013-02-12 04:55:00,
2013-02-11 22:00:00,5.2,0.4,30.33,SW,224,0.0,0.0,80,0.00,,---,0.00,VWS V14.01,2013-02-12 05:00:00,
2013-02-11 22:05:00,4.6,-0.5,30.33,SW,224,0.0,0.0,79,0.00,,---,0.00,VWS V14.01,2013-02-12 05:05:00,
2013-02-11 22:10:00,4.4,-0.4,30.33,SW,223,0.0,1.0,80,0.00,,---,0.00,VWS V14.01,2013-02-12 05:10:00,
2013-02-11 22:11:00,4.4,-0.4,30.33,SW,223,0.0,1.0,80,0.00,,---,0.00,VWS V14.01,2013-02-12 05:11:00,
2013-02-11 22:16:00,4.1,-0.7,30.33,SW,224,0.0,0.0,80,0.00,,---,0.00,VWS V14.01,2013-02-12 05:16:00,
2013-02-11 22:21:00,3.8,-1.2,30.33,SW,224,0.0,0.0,79,0.00,,---,0.00,VWS V14.01,2013-02-12 05:21:00,
2013-02-11 22:26:00,3.6,-1.2,30.33,SW,223,0.0,0.0,80,0.00,,---,0.00,VWS V14.01,2013-02-12 05:26:00,
2013-02-11 22:31:00,3.2,-1.8,30.35,SW,224,0.0,0.0,79,0.00,,---,0.00,VWS V14.01,2013-02-12 05:31:00,
2013-02-11 22:36:00,2.8,-2.2,30.35,SW,223,0.0,0.0,79,0.00,,---,0.00,VWS V14.01,2013-02-12 05:36:00,
2013-02-11 22:41:00,2.3,-2.7,30.35,SW,224,0.0,0.0,79,0.00,,---,0.00,VWS V14.01,2013-02-12 05:41:00,
2013-02-11 22:46:00,2.3,-2.7,30.35,SW,224,2.0,2.0,79,0.00,,---,0.00,VWS V14.01,2013-02-12 05:46:00,
2013-02-11 22:51:00,1.7,-3.6,30.35,SW,224,1.0,1.0,78,0.00,,---,0.00,VWS V14.01,2013-02-12 05:51:00,
2013-02-11 22:56:00,0.8,-4.7,30.38,SW,224,0.0,1.0,77,0.00,,---,0.00,VWS V14.01,2013-02-12 05:56:00,
2013-02-11 23:01:00,0.1,-5.4,30.37,SW,224,0.0,0.0,77,0.00,,---,0.00,VWS V14.01,2013-02-12 06:01:00,
2013-02-11 23:06:00,-0.5,-6.0,30.37,SW,223,0.0,1.0,77,0.00,,---,0.00,VWS V14.01,2013-02-12 06:06:00,
2013-02-11 23:11:00,-0.3,-5.5,30.39,SW,223,0.0,1.0,78,0.00,,---,0.00,VWS V14.01,2013-02-12 06:11:00,
2013-02-11 23:16:00,0.4,-4.6,30.39,SW,224,0.0,1.0,79,0.00,,---,0.00,VWS V14.01,2013-02-12 06:16:00,
2013-02-11 23:21:00,0.8,-3.9,30.39,SW,224,0.0,0.0,80,0.00,,---,0.00,VWS V14.01,2013-02-12 06:21:00,
2013-02-11 23:26:00,0.9,-3.8,30.39,SW,223,0.0,0.0,80,0.00,,---,0.00,VWS V14.01,2013-02-12 06:26:00,
2013-02-11 23:31:00,1.2,-3.5,30.39,SW,224,0.0,0.0,80,0.00,,---,0.00,VWS V14.01,2013-02-12 06:31:00,
2013-02-11 23:36:00,1.2,-3.5,30.39,SW,224,0.0,0.0,80,0.00,,---,0.00,VWS V14.01,2013-02-12 06:36:00,
2013-02-11 23:41:00,0.8,-4.2,30.39,SW,223,0.0,0.0,79,0.00,,---,0.00,VWS V14.01,2013-02-12 06:41:00,
2013-02-11 23:46:00,0.3,-4.9,30.39,SW,223,0.0,0.0,78,0.00,,---,0.00,VWS V14.01,2013-02-12 06:46:00,
2013-02-11 23:51:00,-0.1,-5.3,30.39,SW,224,0.0,0.0,78,0.00,,---,0.00,VWS V14.01,2013-02-12 06:51:00,
2013-02-11 23:56:00,-0.7,-5.9,30.39,SW,224,0.0,0.0,78,0.00,,---,0.00,VWS V14.01,2013-02-12 06:56:00,